DAL7912 KATL-KMIA

Flight info

Callsign DAL7912
Flight time 1h 24m
Altitude 35000
Route BANNG3 LUCKK HONID FROGZ5
Aircraft A21N/M-SDE2E3FGHIRWXY/LB1

Departure

Time 2026-05-03 22:17
Airport Hartsfield Jackson Atlanta International Airport (KATL)

Arrival

Time 2026-05-03 23:41
Airport Miami International Airport (KMIA)
Time Latitude Longitude Altitude Speed Heading
2026-05-03 21:13 33.64175 -84.43533 1012 ft 0 kts 270°
2026-05-03 21:53 33.64175 -84.43510 1012 ft 4 kts 269°
2026-05-03 21:53 33.64178 -84.43479 1012 ft 4 kts 250°
2026-05-03 21:53 33.64185 -84.43462 1012 ft 0 kts 229°
2026-05-03 21:56 33.64185 -84.43463 1012 ft 0 kts 229°
2026-05-03 22:00 33.64181 -84.43466 1012 ft 3 kts 217°
2026-05-03 22:00 33.64147 -84.43464 1012 ft 6 kts 171°
2026-05-03 22:01 33.64091 -84.43460 1012 ft 10 kts 179°
2026-05-03 22:01 33.64012 -84.43459 1012 ft 13 kts 179°
2026-05-03 22:01 33.63912 -84.43457 1012 ft 15 kts 179°
2026-05-03 22:01 33.63800 -84.43458 1011 ft 17 kts 180°
2026-05-03 22:02 33.63756 -84.43458 1011 ft 0 kts 180°
2026-05-03 22:10 33.63753 -84.43458 1011 ft 2 kts 180°
2026-05-03 22:10 33.63720 -84.43458 1011 ft 3 kts 180°
2026-05-03 22:10 33.63715 -84.43458 1011 ft 3 kts 180°
2026-05-03 22:11 33.63681 -84.43444 1011 ft 8 kts 133°
2026-05-03 22:11 33.63665 -84.43354 1011 ft 14 kts 90°
2026-05-03 22:11 33.63663 -84.43221 1011 ft 18 kts 91°
2026-05-03 22:11 33.63663 -84.43061 1011 ft 20 kts 89°
2026-05-03 22:12 33.63665 -84.42887 1011 ft 22 kts 90°
2026-05-03 22:12 33.63658 -84.42712 1012 ft 14 kts 97°
2026-05-03 22:12 33.63656 -84.42583 1012 ft 17 kts 89°
2026-05-03 22:12 33.63656 -84.42438 1012 ft 18 kts 91°
2026-05-03 22:13 33.63654 -84.42280 1012 ft 20 kts 86°
2026-05-03 22:13 33.63655 -84.42110 1012 ft 21 kts 90°
2026-05-03 22:13 33.63655 -84.41928 1012 ft 22 kts 90°
2026-05-03 22:13 33.63655 -84.41735 1012 ft 24 kts 89°
2026-05-03 22:14 33.63655 -84.41530 1011 ft 25 kts 90°
2026-05-03 22:14 33.63654 -84.41335 1011 ft 18 kts 90°
2026-05-03 22:14 33.63655 -84.41178 1011 ft 20 kts 90°
2026-05-03 22:14 33.63655 -84.41029 1012 ft 15 kts 90°
2026-05-03 22:15 33.63642 -84.40926 1012 ft 12 kts 126°
2026-05-03 22:15 33.63562 -84.40908 1012 ft 11 kts 180°
2026-05-03 22:15 33.63492 -84.40908 1012 ft 6 kts 180°
2026-05-03 22:15 33.63472 -84.40944 1012 ft 0 kts 270°
2026-05-03 22:16 33.63472 -84.40946 1012 ft 2 kts 270°
2026-05-03 22:16 33.63473 -84.41216 1010 ft 71 kts 272°
2026-05-03 22:17 33.63470 -84.42194 1012 ft 164 kts 272°
2026-05-03 22:17 33.63487 -84.43738 1839 ft 190 kts 264°
2026-05-03 22:17 33.63354 -84.45346 2816 ft 197 kts 265°
2026-05-03 22:17 33.63348 -84.47047 3462 ft 210 kts 274°
2026-05-03 22:18 33.63389 -84.48250 3743 ft 226 kts 273°
2026-05-03 22:18 33.63422 -84.50226 4228 ft 247 kts 272°
2026-05-03 22:18 33.63436 -84.52313 5072 ft 250 kts 271°
2026-05-03 22:18 33.63443 -84.54392 6030 ft 251 kts 271°
2026-05-03 22:19 33.63447 -84.56515 6864 ft 255 kts 272°
2026-05-03 22:19 33.63452 -84.58656 7615 ft 262 kts 271°
2026-05-03 22:19 33.63453 -84.60876 8345 ft 268 kts 271°
2026-05-03 22:19 33.63423 -84.63131 9159 ft 273 kts 266°
2026-05-03 22:20 33.62922 -84.65340 9979 ft 279 kts 244°
2026-05-03 22:20 33.61678 -84.67117 10675 ft 288 kts 220°
2026-05-03 22:20 33.59954 -84.68390 11403 ft 294 kts 212°
2026-05-03 22:20 33.58079 -84.69416 12146 ft 300 kts 201°
2026-05-03 22:21 33.55993 -84.69723 12867 ft 309 kts 177°
2026-05-03 22:21 33.53856 -84.69303 13645 ft 313 kts 172°
2026-05-03 22:21 33.51700 -84.68803 14347 ft 316 kts 172°
2026-05-03 22:21 33.49534 -84.68333 15027 ft 318 kts 173°
2026-05-03 22:22 33.47364 -84.67888 15694 ft 320 kts 174°
2026-05-03 22:22 33.45135 -84.67450 16375 ft 323 kts 174°
2026-05-03 22:22 33.42910 -84.67017 17038 ft 326 kts 173°
2026-05-03 22:22 33.40714 -84.66225 17601 ft 337 kts 161°
2026-05-03 22:23 33.38518 -84.65049 17925 ft 352 kts 158°
2026-05-03 22:23 33.36250 -84.63780 18193 ft 368 kts 158°
2026-05-03 22:23 33.33882 -84.62477 18435 ft 383 kts 159°
2026-05-03 22:23 33.31434 -84.61141 18639 ft 398 kts 159°
2026-05-03 22:24 33.28838 -84.59726 18841 ft 412 kts 159°
2026-05-03 22:24 33.26177 -84.58287 19039 ft 426 kts 159°
2026-05-03 22:24 33.23438 -84.56808 19227 ft 439 kts 159°
2026-05-03 22:24 33.20620 -84.55290 19414 ft 450 kts 159°
2026-05-03 22:25 33.17769 -84.53758 19677 ft 458 kts 159°
2026-05-03 22:25 33.14855 -84.52191 20108 ft 461 kts 159°
2026-05-03 22:25 33.11917 -84.50617 20549 ft 463 kts 158°
2026-05-03 22:25 33.08976 -84.49029 20984 ft 466 kts 158°
2026-05-03 22:26 33.06012 -84.47438 21461 ft 469 kts 159°
2026-05-03 22:26 33.03020 -84.45841 21927 ft 472 kts 159°
2026-05-03 22:26 33.00014 -84.44246 22406 ft 474 kts 159°
2026-05-03 22:26 32.96943 -84.42837 22838 ft 473 kts 167°
2026-05-03 22:27 32.93715 -84.42108 23248 ft 471 kts 178°
2026-05-03 22:27 32.90441 -84.41973 23669 ft 471 kts 182°
2026-05-03 22:27 32.87156 -84.41947 24038 ft 474 kts 183°
2026-05-03 22:27 32.83847 -84.41911 24423 ft 475 kts 183°
2026-05-03 22:28 32.80550 -84.41853 24907 ft 473 kts 183°
2026-05-03 22:28 32.77270 -84.41792 25416 ft 471 kts 183°
2026-05-03 22:28 32.73999 -84.41730 25951 ft 467 kts 184°
2026-05-03 22:28 32.70760 -84.41667 26509 ft 464 kts 184°
2026-05-03 22:29 32.67545 -84.41603 27043 ft 461 kts 184°
2026-05-03 22:29 32.64349 -84.41538 27560 ft 459 kts 184°
2026-05-03 22:29 32.61200 -84.41474 28054 ft 457 kts 185°
2026-05-03 22:29 32.58032 -84.41408 28539 ft 455 kts 185°
2026-05-03 22:30 32.54873 -84.41344 29009 ft 453 kts 185°
2026-05-03 22:30 32.51725 -84.41281 29483 ft 451 kts 185°
2026-05-03 22:30 32.48602 -84.41217 29940 ft 448 kts 186°
2026-05-03 22:30 32.45485 -84.41150 30428 ft 445 kts 186°
2026-05-03 22:31 32.42398 -84.41086 30834 ft 442 kts 186°
2026-05-03 22:31 32.39327 -84.41031 31207 ft 440 kts 186°
2026-05-03 22:31 32.36266 -84.40971 31567 ft 438 kts 186°
2026-05-03 22:31 32.33219 -84.40913 31917 ft 437 kts 187°
2026-05-03 22:32 32.30221 -84.40853 32247 ft 435 kts 187°
2026-05-03 22:32 32.27204 -84.40788 32573 ft 434 kts 187°
2026-05-03 22:32 32.24196 -84.40727 32886 ft 432 kts 187°
2026-05-03 22:32 32.21189 -84.40667 33175 ft 430 kts 187°
2026-05-03 22:33 32.18198 -84.40610 33516 ft 428 kts 187°
2026-05-03 22:33 32.15226 -84.40549 33820 ft 426 kts 187°
2026-05-03 22:33 32.12258 -84.40487 34116 ft 425 kts 187°
2026-05-03 22:33 32.09311 -84.40428 34340 ft 423 kts 188°
2026-05-03 22:34 32.06363 -84.40369 34528 ft 423 kts 188°
2026-05-03 22:34 32.03422 -84.40315 34710 ft 423 kts 188°
2026-05-03 22:34 32.00480 -84.40260 34886 ft 423 kts 188°
2026-05-03 22:34 31.97529 -84.40202 35057 ft 423 kts 188°
2026-05-03 22:35 31.94586 -84.40146 35116 ft 423 kts 188°
2026-05-03 22:35 31.88725 -84.40026 35140 ft 420 kts 188°
2026-05-03 22:36 31.82882 -84.39910 35140 ft 420 kts 188°
2026-05-03 22:36 31.77046 -84.39796 35139 ft 420 kts 188°
2026-05-03 22:37 31.71210 -84.39680 35142 ft 420 kts 188°
2026-05-03 22:37 31.65396 -84.39522 35121 ft 423 kts 186°
2026-05-03 22:38 31.59499 -84.38276 35145 ft 434 kts 178°
2026-05-03 22:38 31.53597 -84.36733 35134 ft 434 kts 178°
2026-05-03 22:39 31.47694 -84.35232 35133 ft 434 kts 178°
2026-05-03 22:39 31.41792 -84.33742 35135 ft 434 kts 178°
2026-05-03 22:40 31.35893 -84.32257 35107 ft 434 kts 178°
2026-05-03 22:40 31.29922 -84.30750 35120 ft 442 kts 178°
2026-05-03 22:41 31.23887 -84.29233 35120 ft 444 kts 178°
2026-05-03 22:41 31.17844 -84.27708 35119 ft 444 kts 178°
2026-05-03 22:42 31.11792 -84.26187 35120 ft 444 kts 178°
2026-05-03 22:42 31.05779 -84.24677 35115 ft 445 kts 178°
2026-05-03 22:43 30.99724 -84.23162 35127 ft 445 kts 179°
2026-05-03 22:43 30.93667 -84.21647 35137 ft 445 kts 178°
2026-05-03 22:44 30.87614 -84.20134 35139 ft 445 kts 178°
2026-05-03 22:44 30.81556 -84.18619 35138 ft 446 kts 178°
2026-05-03 22:45 30.75472 -84.17109 35139 ft 448 kts 178°
2026-05-03 22:45 30.69369 -84.15587 35136 ft 448 kts 178°
2026-05-03 22:46 30.63281 -84.14081 35131 ft 448 kts 178°
2026-05-03 22:46 30.57228 -84.12575 35127 ft 448 kts 178°
2026-05-03 22:47 30.51131 -84.11059 35127 ft 448 kts 178°
2026-05-03 22:47 30.45038 -84.09553 35127 ft 448 kts 178°
2026-05-03 22:48 30.38940 -84.08002 35123 ft 452 kts 175°
2026-05-03 22:48 30.35931 -84.06714 35121 ft 469 kts 165°
2026-05-03 22:48 30.33035 -84.04889 35125 ft 475 kts 160°
2026-05-03 22:49 30.27320 -84.01016 35125 ft 475 kts 160°
2026-05-03 22:49 30.21580 -83.97185 35104 ft 478 kts 161°
2026-05-03 22:50 30.15847 -83.93385 35123 ft 476 kts 161°
2026-05-03 22:50 30.10100 -83.89581 35112 ft 477 kts 161°
2026-05-03 22:51 30.04349 -83.85786 35115 ft 475 kts 161°
2026-05-03 22:51 29.98622 -83.82003 35113 ft 475 kts 161°
2026-05-03 22:52 29.92865 -83.78218 35102 ft 477 kts 161°
2026-05-03 22:52 29.87109 -83.74433 35108 ft 476 kts 161°
2026-05-03 22:53 29.81355 -83.70650 35113 ft 476 kts 162°
2026-05-03 22:53 29.75633 -83.66896 35112 ft 476 kts 162°
2026-05-03 22:54 29.69868 -83.63146 35109 ft 475 kts 162°
2026-05-03 22:54 29.64107 -83.59400 35081 ft 476 kts 162°
2026-05-03 22:55 29.58331 -83.55624 35107 ft 478 kts 162°
2026-05-03 22:55 29.52558 -83.51863 35105 ft 475 kts 162°
2026-05-03 22:56 29.46816 -83.48108 35108 ft 475 kts 162°
2026-05-03 22:56 29.41066 -83.44367 35103 ft 475 kts 162°
2026-05-03 22:57 29.35324 -83.40634 35075 ft 474 kts 163°
2026-05-03 22:57 29.29580 -83.36908 35098 ft 474 kts 163°
2026-05-03 22:58 29.23822 -83.33409 35103 ft 465 kts 168°
2026-05-03 22:58 29.17919 -83.30419 35094 ft 464 kts 169°
2026-05-03 22:59 29.12020 -83.27421 35094 ft 464 kts 168°
2026-05-03 22:59 29.06126 -83.24399 35045 ft 464 kts 169°
2026-05-03 23:00 29.00241 -83.21410 35087 ft 462 kts 169°
2026-05-03 23:00 28.94369 -83.18440 35099 ft 461 kts 169°
2026-05-03 23:01 28.88491 -83.15481 35074 ft 461 kts 169°
2026-05-03 23:01 28.82632 -83.12523 35084 ft 460 kts 169°
2026-05-03 23:02 28.76776 -83.09578 35048 ft 460 kts 169°
2026-05-03 23:02 28.70917 -83.06636 35074 ft 460 kts 169°
2026-05-03 23:03 28.65093 -83.03707 35080 ft 461 kts 169°
2026-05-03 23:03 28.59219 -83.00743 35081 ft 461 kts 169°
2026-05-03 23:04 28.53349 -82.97800 35078 ft 461 kts 169°
2026-05-03 23:04 28.47479 -82.94865 35020 ft 461 kts 169°
2026-05-03 23:05 28.41598 -82.91926 35072 ft 462 kts 169°
2026-05-03 23:05 28.36702 -82.89479 35076 ft 462 kts 169°
2026-05-03 23:06 28.30817 -82.86544 35080 ft 462 kts 170°
2026-05-03 23:06 28.23970 -82.83136 35078 ft 462 kts 170°
2026-05-03 23:07 28.19037 -82.80681 35080 ft 462 kts 169°
2026-05-03 23:07 28.13133 -82.77741 35031 ft 464 kts 169°
2026-05-03 23:08 28.07214 -82.74790 35056 ft 463 kts 169°
2026-05-03 23:08 28.01313 -82.71953 35059 ft 453 kts 174°
2026-05-03 23:08 27.98301 -82.71115 35062 ft 441 kts 181°
2026-05-03 23:09 27.95327 -82.70527 35064 ft 437 kts 183°
2026-05-03 23:09 27.89331 -82.69392 35062 ft 437 kts 182°
2026-05-03 23:10 27.83308 -82.68210 35053 ft 440 kts 182°
2026-05-03 23:10 27.77278 -82.67016 35046 ft 440 kts 182°
2026-05-03 23:11 27.71226 -82.65826 35042 ft 440 kts 182°
2026-05-03 23:11 27.65190 -82.64643 35044 ft 441 kts 182°
2026-05-03 23:12 27.59145 -82.63454 35048 ft 441 kts 182°
2026-05-03 23:12 27.53140 -82.62245 35049 ft 444 kts 180°
2026-05-03 23:13 27.47089 -82.60516 35054 ft 449 kts 177°
2026-05-03 23:13 27.41044 -82.58733 35061 ft 449 kts 178°
2026-05-03 23:14 27.34999 -82.56963 35061 ft 449 kts 177°
2026-05-03 23:14 27.28988 -82.55191 35060 ft 449 kts 178°
2026-05-03 23:15 27.22932 -82.53411 35031 ft 450 kts 177°
2026-05-03 23:15 27.16849 -82.51639 35055 ft 451 kts 177°
2026-05-03 23:16 27.10787 -82.49868 35050 ft 451 kts 177°
2026-05-03 23:16 27.04710 -82.48093 35047 ft 451 kts 177°
2026-05-03 23:17 26.98639 -82.46311 35048 ft 451 kts 177°
2026-05-03 23:17 26.92579 -82.44345 35026 ft 466 kts 168°
2026-05-03 23:17 26.89681 -82.42542 35046 ft 488 kts 155°
2026-05-03 23:18 26.87012 -82.40115 35054 ft 497 kts 150°
2026-05-03 23:18 26.81824 -82.35003 35050 ft 496 kts 150°
2026-05-03 23:19 26.76641 -82.30001 35056 ft 495 kts 150°
2026-05-03 23:19 26.71408 -82.24999 35050 ft 495 kts 150°
2026-05-03 23:20 26.66172 -82.19993 35051 ft 495 kts 150°
2026-05-03 23:20 26.60922 -82.14982 35024 ft 496 kts 150°
2026-05-03 23:21 26.55668 -82.09974 35041 ft 496 kts 150°
2026-05-03 23:21 26.50458 -82.04872 35042 ft 499 kts 148°
2026-05-03 23:22 26.42924 -81.97259 34074 ft 474 kts 149°
2026-05-03 23:22 26.40485 -81.94809 33354 ft 469 kts 148°
2026-05-03 23:22 26.38066 -81.92379 32631 ft 466 kts 148°
2026-05-03 23:23 26.35667 -81.89968 31926 ft 463 kts 148°
2026-05-03 23:23 26.33244 -81.87534 31416 ft 477 kts 147°
2026-05-03 23:23 26.30786 -81.85071 30858 ft 478 kts 147°
2026-05-03 23:23 26.28335 -81.82599 30237 ft 473 kts 146°
2026-05-03 23:24 26.25906 -81.80151 29498 ft 467 kts 146°
2026-05-03 23:24 26.23637 -81.77563 28735 ft 471 kts 135°
2026-05-03 23:24 26.21950 -81.74400 27981 ft 477 kts 122°
2026-05-03 23:24 26.20572 -81.71059 27236 ft 473 kts 120°
2026-05-03 23:25 26.19224 -81.67748 26507 ft 467 kts 121°
2026-05-03 23:25 26.17855 -81.64501 25788 ft 460 kts 121°
2026-05-03 23:25 26.16475 -81.61304 25088 ft 454 kts 122°
2026-05-03 23:25 26.15107 -81.58166 24414 ft 448 kts 122°
2026-05-03 23:26 26.13754 -81.55068 23741 ft 441 kts 122°
2026-05-03 23:26 26.12430 -81.52037 22967 ft 433 kts 122°
2026-05-03 23:26 26.11123 -81.49042 22193 ft 426 kts 122°
2026-05-03 23:26 26.09838 -81.46102 21437 ft 419 kts 121°
2026-05-03 23:27 26.08571 -81.43202 20714 ft 413 kts 121°
2026-05-03 23:27 26.07327 -81.40358 19994 ft 406 kts 121°
2026-05-03 23:27 26.06118 -81.37588 19306 ft 401 kts 121°
2026-05-03 23:27 26.04896 -81.34781 18618 ft 395 kts 121°
2026-05-03 23:28 26.03723 -81.32088 17896 ft 390 kts 121°
2026-05-03 23:28 26.02544 -81.29384 17129 ft 385 kts 120°
2026-05-03 23:28 26.01381 -81.26721 16382 ft 380 kts 120°
2026-05-03 23:28 26.00236 -81.24099 15658 ft 376 kts 120°
2026-05-03 23:29 25.99101 -81.21499 14918 ft 372 kts 120°
2026-05-03 23:29 25.97978 -81.18932 14223 ft 367 kts 119°
2026-05-03 23:29 25.96864 -81.16384 13504 ft 363 kts 119°
2026-05-03 23:29 25.95766 -81.13877 12751 ft 360 kts 119°
2026-05-03 23:30 25.94674 -81.11384 12030 ft 356 kts 119°
2026-05-03 23:30 25.93605 -81.08940 11510 ft 345 kts 119°
2026-05-03 23:30 25.92574 -81.06585 11118 ft 334 kts 119°
2026-05-03 23:30 25.91576 -81.04307 10922 ft 322 kts 119°
2026-05-03 23:31 25.90666 -81.02052 10622 ft 318 kts 116°
2026-05-03 23:31 25.89803 -80.99801 10362 ft 316 kts 116°
2026-05-03 23:31 25.88946 -80.97554 10121 ft 315 kts 116°
2026-05-03 23:31 25.88095 -80.95325 9791 ft 313 kts 116°
2026-05-03 23:32 25.87249 -80.93120 9450 ft 306 kts 116°
2026-05-03 23:32 25.86428 -80.90978 9194 ft 298 kts 116°
2026-05-03 23:32 25.85626 -80.88889 8847 ft 291 kts 116°
2026-05-03 23:32 25.84837 -80.86837 8426 ft 288 kts 116°
2026-05-03 23:33 25.84055 -80.84803 7961 ft 285 kts 116°
2026-05-03 23:33 25.83287 -80.82808 7542 ft 283 kts 116°
2026-05-03 23:33 25.82519 -80.80815 7147 ft 280 kts 116°
2026-05-03 23:33 25.81753 -80.78826 6776 ft 278 kts 116°
2026-05-03 23:34 25.80993 -80.76853 6415 ft 276 kts 115°
2026-05-03 23:34 25.80242 -80.74902 6033 ft 273 kts 116°
2026-05-03 23:34 25.79497 -80.72973 5640 ft 271 kts 115°
2026-05-03 23:34 25.78763 -80.71069 5304 ft 264 kts 116°
2026-05-03 23:35 25.78058 -80.69240 5093 ft 252 kts 115°
2026-05-03 23:35 25.77389 -80.67485 4778 ft 242 kts 112°
2026-05-03 23:35 25.77049 -80.65672 4331 ft 241 kts 91°
2026-05-03 23:35 25.77152 -80.63835 4050 ft 239 kts 83°
2026-05-03 23:36 25.77334 -80.62020 3994 ft 236 kts 85°
2026-05-03 23:36 25.77425 -80.60182 3991 ft 238 kts 88°
2026-05-03 23:36 25.77505 -80.58352 3998 ft 239 kts 88°
2026-05-03 23:36 25.77580 -80.56518 4002 ft 238 kts 88°
2026-05-03 23:37 25.77656 -80.54686 3939 ft 237 kts 87°
2026-05-03 23:37 25.77731 -80.52884 3722 ft 235 kts 87°
2026-05-03 23:37 25.77805 -80.51086 3454 ft 234 kts 87°
2026-05-03 23:37 25.77880 -80.49287 3156 ft 233 kts 87°
2026-05-03 23:38 25.77953 -80.47511 2850 ft 229 kts 87°
2026-05-03 23:38 25.78024 -80.45788 2621 ft 216 kts 87°
2026-05-03 23:38 25.78092 -80.44151 2339 ft 209 kts 87°
2026-05-03 23:38 25.78158 -80.42562 2042 ft 203 kts 86°
2026-05-03 23:39 25.78222 -80.41022 1759 ft 196 kts 86°
2026-05-03 23:39 25.78283 -80.39561 1484 ft 184 kts 86°
2026-05-03 23:39 25.78340 -80.38191 1271 ft 170 kts 85°
2026-05-03 23:39 25.78390 -80.36978 1054 ft 145 kts 85°
2026-05-03 23:40 25.78435 -80.35896 862 ft 141 kts 86°
2026-05-03 23:40 25.78480 -80.34806 684 ft 139 kts 86°
2026-05-03 23:40 25.78522 -80.33748 524 ft 137 kts 85°
2026-05-03 23:40 25.78563 -80.32710 382 ft 132 kts 85°
2026-05-03 23:41 25.78599 -80.31692 159 ft 133 kts 86°
2026-05-03 23:41 25.78645 -80.30671 39 ft 129 kts 84°
2026-05-03 23:41 25.78691 -80.29779 24 ft 92 kts 91°
2026-05-03 23:41 25.78707 -80.29303 24 ft 24 kts 72°
2026-05-03 23:42 25.78775 -80.29183 23 ft 19 kts 41°
2026-05-03 23:42 25.78824 -80.29052 22 ft 20 kts 85°
2026-05-03 23:42 25.78860 -80.28893 21 ft 22 kts 78°
2026-05-03 23:42 25.78871 -80.28722 19 ft 23 kts 87°
2026-05-03 23:43 25.78878 -80.28590 22 ft 13 kts 87°
2026-05-03 23:43 25.78882 -80.28476 25 ft 16 kts 88°
2026-05-03 23:43 25.78886 -80.28381 26 ft 10 kts 87°
2026-05-03 23:43 25.78890 -80.28290 24 ft 13 kts 87°
2026-05-03 23:44 25.78896 -80.28175 25 ft 16 kts 84°
2026-05-03 23:44 25.78910 -80.28040 28 ft 19 kts 76°
2026-05-03 23:44 25.78942 -80.27920 28 ft 17 kts 98°
2026-05-03 23:44 25.78975 -80.27832 26 ft 14 kts 24°
2026-05-03 23:45 25.79073 -80.27784 28 ft 17 kts 22°
2026-05-03 23:45 25.79177 -80.27766 27 ft 11 kts
2026-05-03 23:45 25.79220 -80.27746 26 ft 6 kts 70°
2026-05-03 23:45 25.79222 -80.27720 28 ft 2 kts 94°
2026-05-03 23:46 25.79222 -80.27711 27 ft 0 kts 90°